This demonstration page uses our WeatherBlox Daily Observations layout. Learn more.

Left ArrowRight Arrow

44.31136, -96.79839

Hourly Observations for August 3, 2017

Temp ( °F °C ) Dew Point ( °F °C ) Humidity (%) Winds ( mph kmh ) Pressure ( in mb ) Visibility ( mi km ) Precip ( " mm )
12:56 am 00:56 Cloudy 66 18.9 62 16.7 87 87 SW 3 6 30.04 1017 N/A 0.00 0.03
1:56 am 01:56 Mostly Cloudy 64 17.8 61 16.1 90 90 NNW 7 11 30.04 1017 N/A 0.00 0.00
2:56 am 02:56 Cloudy 60 15.6 57 13.9 90 90 N 12 19 30.04 1017 N/A 0.00 0.00
3:13 am 03:13 Cloudy 59 15 57 14 94 94 N 8 13 29.97 1015 N/A 0.00 0.00
3:56 am 03:56 Cloudy with Rain 59 15 57 13.9 93 93 NNE 9 15 30.04 1017 N/A 0.05 1.27
4:08 am 04:08 Cloudy with Light Rain 59 15 57 14 94 94 N 8 13 30.00 1016 N/A 0.01 0.25
4:38 am 04:38 Cloudy with Light Rain 59 15 57 14 94 94 N 10 17 30.00 1016 N/A 0.02 0.51
4:53 am 04:53 Cloudy with Light Rain 59 15 57 14 94 94 N 7 11 30.00 1016 N/A 0.03 0.76
4:56 am 04:56 Cloudy with Light Rain 59 15 57 13.9 93 93 N 6 9 30.05 1018 N/A 0.03 0.76
5:56 am 05:56 Cloudy 59 15 57 13.9 93 93 NNW 13 20 30.06 1018 N/A 0.02 0.51
6:19 am 06:19 Cloudy with Light Rain 57 14 57 14 100 100 NNW 14 22 30.06 1018 N/A 0.00 0.03
6:29 am 06:29 Cloudy with Light Rain 57 14 57 14 100 100 NNW 13 20 30.06 1018 N/A 0.00 0.03
6:38 am 06:38 Cloudy with Light Rain 57 14 55 13 94 94 NNW 13 20 30.06 1018 N/A 0.00 0.03
6:56 am 06:56 Cloudy with Light Rain 57 13.9 56 13.3 96 96 NNW 16 26 30.09 1019 N/A 0.00 0.03
7:56 am 07:56 Cloudy with Light Rain 56 13.3 55 12.8 97 97 NNW 16 26 30.11 1020 N/A 0.00 0.03
8:51 am 08:51 Cloudy with Light Rain 57 14 55 13 94 94 N 18 30 30.09 1019 N/A 0.00 0.03
8:56 am 08:56 Cloudy 57 13.9 55 12.8 93 93 NNW 16 26 30.13 1020 N/A 0.00 0.03
9:53 am 09:53 Cloudy 57 14 54 12 88 88 NNW 18 30 30.09 1019 N/A 0.00 0.00
9:56 am 09:56 Cloudy 57 13.9 54 12.2 90 90 N 16 26 30.13 1020 N/A 0.00 0.00
10:03 am 10:03 Cloudy with Light Rain 57 14 54 12 88 88 NNW 16 26 30.09 1019 N/A 0.00 0.03
10:10 am 10:10 Cloudy with Light Rain 57 14 54 12 88 88 NNW 16 26 30.09 1019 N/A 0.00 0.03
10:17 am 10:17 Cloudy 57 14 55 13 94 94 NNW 17 28 30.09 1019 N/A 0.00 0.03
10:56 am 10:56 Cloudy 59 15 55 12.8 87 87 NNW 15 24 30.14 1021 N/A 0.00 0.03
11:56 am 11:56 Cloudy with Light Rain 59 15 54 12.2 83 83 NNE 17 28 30.15 1021 N/A 0.00 0.03
12:10 pm 12:10 Cloudy with Light Rain 61 16 54 12 77 77 N 16 26 30.09 1019 N/A 0.00 0.03
12:56 pm 12:56 Cloudy 61 16.1 53 11.7 75 75 N 20 31 30.16 1021 N/A 0.00 0.03
1:39 pm 13:39 Cloudy 63 17 52 11 68 68 N 21 33 30.09 1019 N/A 0.00 0.00
1:56 pm 13:56 Mostly Cloudy 62 16.7 52 11.1 70 70 N 20 31 30.16 1021 N/A 0.00 0.00
2:56 pm 14:56 Mostly Cloudy 63 17.2 51 10.6 65 65 N 16 26 30.17 1022 N/A 0.00 0.00
3:56 pm 15:56 Mostly Cloudy 64 17.8 49 9.4 58 58 NNE 16 26 30.18 1022 N/A 0.00 0.00
4:56 pm 16:56 Mostly Sunny 65 18.3 49 9.4 56 56 N 16 26 30.18 1022 N/A 0.00 0.00
5:56 pm 17:56 Mostly Cloudy 64 17.8 50 10 60 60 NNE 9 15 30.19 1022 N/A 0.00 0.00
6:56 pm 18:56 Sunny 65 18.3 50 10 59 59 NNE 8 13 30.19 1022 N/A 0.00 0.00
7:56 pm 19:56 Partly Cloudy 64 17.8 52 11.1 65 65 NNW 6 9 30.18 1022 N/A 0.00 0.00
8:56 pm 20:56 Partly Cloudy 60 15.6 53 11.7 78 78 Calm 30.17 1022 N/A 0.00 0.00
9:56 pm 21:56 Mostly Clear 59 15 53 11.7 81 81 Calm 30.17 1022 N/A 0.00 0.00
10:56 pm 22:56 Mostly Clear 56 13.3 52 11.1 87 87 Calm 30.18 1022 N/A 0.00 0.00
11:56 pm 23:56 Clear 55 12.8 52 11.1 90 90 Calm 30.18 1022 N/A 0.00 0.00

Powered by AerisWeather